Find Local Weather

World > North America > United States > Illinois

Matteson, Illinois Regional Weather

Lat: 41.51N, Lon: 87.74W
Wx Zone: ILZ014
Warning FLW WEATHER ALERT - (More Info. Click Here) Warning
Feedback
Expires:201807201500;;771137
ASUS43 KLOT 201408
RWRIL 

ILLINOIS REGIONAL WEATHER ROUNDUP
NATIONAL WEATHER SERVICE CHICAGO/ROMEOVILLE IL
900 AM CDT FRI JUL 20 2018

NOTE: "FAIR" INDICATES FEW OR NO CLOUDS BELOW 12,000 FEET WITH NO
SIGNIFICANT WEATHER AND/OR OBSTRUCTIONS TO VISIBILITY.

* THESE STATIONS ARE NOT UNDER NWS QUALITY CONTROL. THEY ALSO MAY NOT
  REPORT WEATHER SUCH AS PRECIPITATION OR FOG.


ILZ005-006-012>014-019>023-201500-
NORTHEAST ILLINOIS
  
CITY           SKY/WX    TMP DP  RH WIND       PRES   REMARKS
CHICAGO-OHARE  PTSUNNY   75  65  70 SW12      29.67S                  
CHICAGO-MIDWAY CLOUDY    76  67  73 SW10G20   29.68S                  
AURORA         CLOUDY    74  67  78 SW13G21   29.67F                  
LANSING*       CLOUDY    75  69  80 S15       29.70F                  
JOLIET*        PTSUNNY   78  68  73 SW14      29.69S                  
WAUKEGAN       CLOUDY    74  68  81 SW12      29.66S                  
DUPAGE AIRPORT PTSUNNY   75  67  76 SW21G26   29.67S                  
KANKAKEE*      FAIR      77  68  72 SW18      29.72F                  
WHEELING       PTSUNNY   76  67  73 SW9       29.68S                  
MORRIS*        CLOUDY    73  67  82 SW8G17    29.68S                  
ROMEOVILLE*    FAIR      75  67  76 SW14G21   29.68F                  
NORTHERLY ISL    N/A     75  64  68 SE12        N/A                   
$$


SKY/WX - Weather  TMP - Temperature  DP - Dewpoint  RH - Relative Humidity
WIND - Wind Direction/Speed PRES - Barometric Pressure